[[{"header":{"parameterUnit":"m.s-1","parameterCategory":1,"la1":30.2991,"la2":30.254,"lo1":-89.0895,"lo2":-89.0444,"dy":0.0017,"dx":0.0017,"nx":28,"ny":28,"refTime":"2023-10-23T21:00:00:Z","depth":0,"parameterNumber":2,"parameterNumberName":"U-component_of_WINDS"},"data":[0,0,0,0,0,0,0,0,0,0,0,0,0,0,0,0,0,0,0,0,0,0,0,0,0,0,0,0,0,0,0,0,0,0,0,0,0,0,0,0,0,0,0,0,0,0,0,0,0,0,0,0,0,0,0,0,0,0,-7.0918,-7.0919,0,-7.0955,-7.0955,-7.0955,-7.0852,-7.0849,-7.0846,-7.0843,-7.0876,-7.088,-7.0884,0,0,0,0,0,0,0,0,0,0,0,0,0,-7.0758,-7.0762,-7.0918,-7.0919,-7.0919,-7.0955,-7.0955,-7.0955,-7.0853,-7.0849,-7.0845,-7.0841,-7.0875,-7.088,-7.0884,0,0,0,0,0,0,0,0,0,0,0,0,0,-7.0814,-7.0763,-7.0918,-7.0872,-7.0868,-7.0954,-7.0955,-7.0956,-7.0853,-7.0849,-7.0844,-7.0839,-7.0874,-7.0879,-7.0885,-7.1016,0,0,-7.0903,-7.0905,0,0,0,0,0,0,0,0,-7.0811,-7.082,-7.0878,-7.0875,-7.0871,-7.0894,-7.0911,-7.0976,-7.0855,-7.0859,-7.0843,-7.0837,-7.0886,-7.089,-7.0907,-7.1018,-7.1019,-7.0903,-7.0907,-7.0909,-7.0911,0,0,0,0,0,0,0,-7.0808,-7.0818,-7.0932,-7.0879,-7.0875,-7.0849,-7.0852,-7.0923,-7.0898,-7.0858,-7.0851,-7.0857,-7.0883,-7.0902,-7.0907,-7.1019,-7.0903,-7.0908,-7.0912,-7.0914,-7.1241,-7.1246,0,0,0,0,0,0,-7.081,-7.0816,-7.0931,-7.0933,-7.0829,-7.0856,-7.0859,-7.0891,-7.0897,-7.0894,-7.0861,-7.0852,-7.0895,-7.0901,-7.0908,-7.1062,-7.0909,-7.0914,-7.0918,-7.1236,-7.1242,-7.1248,0,0,0,0,0,0,-7.0807,-7.0821,-7.093,-7.0873,-7.0885,-7.0864,-7.0901,-7.0895,-7.0914,-7.09,-7.0894,-7.0885,-7.0891,-7.09,-7.0991,-7.1062,-7.0917,-7.0922,-7.123,-7.1238,-7.1245,-7.1372,0,0,0,0,0,0,-7.0803,-7.0821,-7.087,-7.0875,-7.0888,-7.1012,-7.0906,-7.0899,-7.0924,-7.0913,-7.0921,-7.0917,-7.0888,-7.0983,-7.0997,-7.1067,-7.0927,-7.1223,-7.1234,-7.1243,-7.1361,-7.1383,-7.1402,0,0,0,0,0,-7.0797,-7.0903,-7.0873,-7.0888,-7.095,-7.1016,-7.1024,-7.0989,-7.0931,-7.098,-7.0972,-7.0917,-7.1053,-7.0993,-7.1007,-7.1081,-7.1219,-7.1231,-7.1242,-7.1352,-7.1379,-7.1402,0,0,0,0,0,0,-7.0905,-7.0902,-7.0869,-7.098,-7.1,-7.0999,-7.1059,-7.1018,-7.1053,-7.1041,-7.0995,-7.0998,-7.1097,-7.1099,-7.1031,-7.121,-7.1126,-7.1141,-7.1204,-7.123,-7.125,-7.1246,-7.0932,0,0,0,0,0,-7.0942,-7.0997,-7.0992,-7.109,-7.1102,-7.108,-7.1107,-7.108,-7.1097,-7.1104,-7.1102,-7.1121,-7.1168,-7.1199,-7.1242,-7.1363,-7.1363,-7.1421,-7.1441,-7.1458,-7.1471,-7.1536,-7.1562,-7.1287,-7.1287,-7.1286,0,0,-7.1017,-7.1023,-7.106,-7.1112,-7.1123,-7.1181,-7.1087,-7.1151,-7.1194,-7.1114,-7.1199,-7.1199,-7.1217,-7.1324,-7.1371,-7.1328,-7.1548,-7.1473,-7.1487,-7.149,-7.1551,-7.1577,-7.16,-7.1295,-7.1293,-7.1292,0,0,-7.1185,-7.1195,-7.1278,-7.1294,-7.1314,-7.13,-7.132,-7.1327,-7.1325,-7.1411,-7.1352,-7.1403,-7.1484,-7.15,-7.1518,-7.1698,-7.1649,-7.1714,-7.1818,-7.1883,-7.1904,-7.1923,-7.1987,-7.201,-7.1727,-7.1727,-7.1728,0,-7.1275,-7.1361,-7.1326,-7.1396,-7.142,-7.1354,-7.1438,-7.1454,-7.1487,-7.1505,-7.1458,-7.1562,-7.1569,-7.1679,-7.1724,-7.1741,-7.1763,-7.171,-7.1904,-7.1923,-7.194,-7.2,-7.2024,-7.1735,-7.1734,-7.1733,-7.1733,0,-7.1472,-7.1533,-7.1598,-7.1634,-7.1666,-7.1742,-7.1719,-7.1756,-7.1728,-7.1719,-7.1808,-7.1816,-7.1859,-7.1884,-7.1855,-7.1991,-7.1964,-7.1912,-7.1826,-7.1974,-7.203,-7.2053,-7.1746,-7.1743,-7.1741,-7.1739,0,0,-7.1702,-7.1722,-7.1746,-7.1763,-7.1783,-7.1829,-7.1904,-7.1949,-7.1981,-7.2008,-7.2069,-7.2143,-7.2095,-7.2117,-7.209,-7.2147,-7.2289,-7.2087,-7.2087,-7.2123,-7.2439,-7.2477,-7.2504,-7.2259,-7.2263,-7.2266,-7.2437,0,-7.1866,-7.1995,-7.1968,-7.2094,-7.2151,-7.2092,-7.2157,-7.2177,-7.2172,-7.2218,-7.2212,-7.2265,-7.2199,-7.2212,-7.2266,-7.226,-7.2351,-7.2248,-7.2314,-7.2317,-7.2308,-7.2533,-7.2572,-7.2732,-7.2459,-7.2463,-7.2465,0,-7.2073,-7.211,-7.2243,-7.2257,-7.228,-7.2339,-7.2379,-7.2426,-7.2448,-7.244,-7.2467,-7.2431,-7.2505,-7.2423,-7.2525,-7.2455,-7.2482,-7.2484,-7.2489,-7.2491,-7.2397,-7.2539,-7.2783,-7.2806,-7.2499,-7.2496,-7.2494,0,-7.2226,-7.231,-7.24,-7.2417,-7.2436,-7.2479,-7.2489,-7.2507,-7.2537,-7.2572,-7.2591,-7.2635,-7.2659,-7.2694,-7.267,-7.2612,-7.2777,-7.2691,-7.2772,-7.2772,-7.2805,-7.2803,-7.3055,-7.2827,-7.2827,-7.2827,-7.2826,0,-7.241,-7.2493,-7.247,-7.2525,-7.2617,-7.2587,-7.2679,-7.2682,-7.27,-7.2754,-7.2707,-7.2759,-7.2727,-7.2777,-7.276,-7.2847,-7.2859,-7.2854,-7.2848,-7.2857,-7.2857,-7.287,-7.2858,-7.2833,-7.2832,-7.283,-7.2829,0,-7.2594,-7.2582,-7.2677,-7.269,-7.2695,-7.2763,-7.2773,-7.2825,-7.2819,-7.2889,-7.2904,-7.2893,-7.295,-7.2932,-7.2993,-7.2981,-7.3092,-7.3073,-7.3085,-7.3079,-7.316,-7.3152,-7.3426,-7.3461,-7.3214,-7.3216,-7.3218,0,-7.2711,-7.2774,-7.2795,-7.283,-7.2844,-7.29,-7.2931,-7.2906,-7.294,-7.2973,-7.3021,-7.3075,-7.3115,-7.321,-7.3207,-7.3254,-7.3234,-7.3328,-7.324,-7.3248,-7.3234,-7.3229,-7.3235,-7.3343,-7.3346,-7.3349,-7.335,0,-7.2919,-7.2912,-7.2959,-7.3007,-7.3046,-7.3081,-7.3112,-7.3143,-7.3119,-7.3161,-7.322,-7.3252,-7.3317,-7.337,-7.3414,-7.3423,-7.3383,-7.3379,-7.34,-7.3408,-7.3411,-7.3409,-7.313,-7.3371,-7.3369,-7.3368,-7.3367,-7.3366,-7.3072,-7.3126,-7.3151,-7.3206,-7.3228,-7.3259,-7.3309,-7.3311,-7.336,-7.3411,-7.3394,-7.3462,-7.3485,-7.354,-7.3556,-7.3609,-7.3573,-7.3603,-7.361,-7.3618,-7.3627,-7.3407,-7.3617,-7.3616,-7.3616,-7.3615,-7.3615,0,-7.3276,-7.3291,-7.3343,-7.3389,-7.3433,-7.3396,-7.3429,-7.3468,-7.3529,-7.3555,-7.3598,-7.3667,-7.3721,-7.3725,-7.3775,-7.3816,-7.3799,-7.383,-7.3825,-7.3828,-7.3657,-7.3633,-7.3843,-7.3843,-7.3843,-7.3843,-7.3843,-7.3843,-7.3388,-7.3478,-7.3474,-7.3575,-7.3588,-7.3656,-7.3678,-7.3707,-7.3728,-7.3808,-7.3853,-7.3856,-7.3874,-7.3926,-7.3973,-7.3973,-7.3993,-7.403,-7.4023,-7.3863,-7.384,-7.3818,-7.3795,-7.4035,-7.4036,-7.4189,-7.419,-7.4192]},{"header":{"parameterUnit":"m.s-1","parameterCategory":1,"la1":30.2991,"la2":30.254,"lo1":-89.0895,"lo2":-89.0444,"dy":0.0017,"dx":0.0017,"nx":28,"ny":28,"refTime":"2023-10-23T21:00:00:Z","depth":0,"parameterNumber":3,"parameterNumberName":"V-component_of_WINDS"},"data":[0,0,0,0,0,0,0,0,0,0,0,0,0,0,0,0,0,0,0,0,0,0,0,0,0,0,0,0,0,0,0,0,0,0,0,0,0,0,0,0,0,0,0,0,0,0,0,0,0,0,0,0,0,0,0,0,0,0,3.1432,3.1432,0,3.1367,3.1366,3.1365,3.1269,3.1267,3.1266,3.1264,3.1195,3.1195,3.1195,0,0,0,0,0,0,0,0,0,0,0,0,0,3.1475,3.1475,3.1432,3.1432,3.1431,3.1367,3.1366,3.1365,3.1269,3.1267,3.1265,3.1263,3.1195,3.1195,3.1195,0,0,0,0,0,0,0,0,0,0,0,0,0,3.1438,3.1475,3.1433,3.1375,3.137,3.1367,3.1366,3.1365,3.127,3.1267,3.1265,3.1263,3.1195,3.1195,3.1195,3.1242,0,0,3.1193,3.1193,0,0,0,0,0,0,0,0,3.144,3.1436,3.1385,3.1379,3.1373,3.1324,3.1356,3.1324,3.127,3.1308,3.1264,3.1261,3.124,3.1236,3.1229,3.1239,3.1236,3.1193,3.1193,3.1193,3.1193,0,0,0,0,0,0,0,3.1443,3.1439,3.1406,3.1384,3.1377,3.1353,3.1345,3.1349,3.1289,3.1304,3.1297,3.1291,3.1236,3.1229,3.1226,3.1235,3.1193,3.1193,3.1193,3.1193,3.1284,3.1287,0,0,0,0,0,0,3.1454,3.1441,3.1408,3.1404,3.1401,3.1354,3.1345,3.1342,3.1288,3.1278,3.1293,3.1287,3.1231,3.1227,3.1224,3.1278,3.1193,3.1193,3.1192,3.1282,3.1285,3.1288,0,0,0,0,0,0,3.1455,3.1452,3.1411,3.1421,3.1414,3.1356,3.1353,3.1342,3.1335,3.128,3.1268,3.1297,3.1229,3.1224,3.1239,3.1274,3.1192,3.1192,3.1278,3.1283,3.1286,3.1386,0,0,0,0,0,0,3.1457,3.1453,3.147,3.1422,3.1414,3.1428,3.1355,3.1342,3.1335,3.1326,3.1281,3.1271,3.1227,3.124,3.1239,3.1272,3.1192,3.1275,3.128,3.1285,3.1379,3.1393,3.1404,0,0,0,0,0,3.1459,3.15,3.1471,3.1468,3.1434,3.143,3.1425,3.1374,3.1338,3.1355,3.132,3.1272,3.1271,3.1243,3.124,3.1274,3.1273,3.1279,3.1285,3.1373,3.139,3.1404,0,0,0,0,0,0,3.1552,3.1492,3.146,3.1487,3.1465,3.1414,3.1433,3.1393,3.138,3.1372,3.1308,3.1299,3.1323,3.1299,3.1269,3.1319,3.1265,3.127,3.1333,3.1348,3.1361,3.1366,3.1191,0,0,0,0,0,3.1576,3.1577,3.1525,3.1553,3.1544,3.1491,3.1487,3.1451,3.1424,3.1414,3.138,3.1356,3.1351,3.1348,3.1339,3.1375,3.1365,3.1397,3.141,3.1421,3.1427,3.1447,3.1461,3.1308,3.1308,3.1307,0,0,3.1624,3.1592,3.1596,3.1571,3.155,3.1554,3.1484,3.149,3.1492,3.1414,3.1427,3.1402,3.1371,3.1398,3.1408,3.1379,3.1467,3.1428,3.1437,3.1437,3.1454,3.1469,3.1482,3.1312,3.1311,3.131,0,0,3.1715,3.169,3.1713,3.1693,3.1662,3.1627,3.1633,3.1589,3.1569,3.1581,3.1524,3.1526,3.1517,3.1499,3.1488,3.1577,3.1533,3.1575,3.1641,3.1662,3.1674,3.1684,3.1717,3.173,3.1581,3.1582,3.1582,0,3.1779,3.1783,3.1729,3.174,3.1731,3.1663,3.1686,3.1669,3.1637,3.1633,3.1602,3.1591,3.1565,3.1588,3.161,3.1603,3.1609,3.158,3.1676,3.1686,3.1695,3.1726,3.1739,3.1587,3.1587,3.1586,3.1585,0,3.1864,3.1868,3.189,3.1862,3.1856,3.1873,3.1822,3.1823,3.1787,3.1756,3.1771,3.1738,3.1724,3.1726,3.169,3.1745,3.1728,3.1688,3.1632,3.1716,3.1745,3.1756,3.1595,3.1593,3.1591,3.159,0,0,3.201,3.1955,3.1964,3.1951,3.1913,3.1915,3.193,3.1917,3.1919,3.19,3.1911,3.1907,3.1871,3.1859,3.1821,3.1839,3.1914,3.1796,3.1794,3.182,3.1974,3.2006,3.202,3.1885,3.1887,3.1888,3.1977,0,3.2094,3.2116,3.207,3.2104,3.2107,3.2044,3.2058,3.2036,3.2009,3.2008,3.1977,3.1976,3.1926,3.1919,3.1934,3.1902,3.1944,3.1894,3.1896,3.1897,3.1906,3.2035,3.2067,3.2152,3.1988,3.199,3.1991,0,3.2194,3.2183,3.2217,3.218,3.218,3.2193,3.2178,3.2178,3.2154,3.2132,3.2122,3.2078,3.2091,3.2039,3.2056,3.2024,3.2022,3.2007,3.2009,3.2007,3.1949,3.2038,3.2178,3.2192,3.2007,3.2006,3.2005,0,3.23,3.2292,3.2312,3.2304,3.226,3.2271,3.2254,3.2227,3.2223,3.221,3.2207,3.2197,3.2191,3.2184,3.214,3.2105,3.2164,3.2106,3.2147,3.2149,3.2162,3.2162,3.2306,3.216,3.216,3.216,3.216,0,3.2399,3.2423,3.2359,3.2372,3.2398,3.2345,3.2372,3.2348,3.2326,3.2333,3.2278,3.2286,3.2226,3.2229,3.2194,3.2216,3.2213,3.2197,3.2188,3.2203,3.2205,3.2201,3.2194,3.2163,3.2162,3.2162,3.2161,0,3.252,3.2478,3.2497,3.2456,3.2446,3.2467,3.2432,3.2442,3.2412,3.2423,3.2422,3.2375,3.2375,3.233,3.232,3.2297,3.2335,3.2314,3.2343,3.2337,3.2381,3.2378,3.2527,3.2545,3.2388,3.2389,3.2391,0,3.2587,3.2604,3.2566,3.2567,3.2553,3.2556,3.2552,3.2502,3.25,3.2476,3.249,3.2486,3.248,3.2484,3.2449,3.2442,3.2422,3.2474,3.242,3.2436,3.2424,3.2424,3.2427,3.2486,3.2488,3.249,3.2491,0,3.271,3.2689,3.2686,3.2677,3.2675,3.2665,3.2652,3.2657,3.2601,3.2603,3.2603,3.2599,3.2591,3.2589,3.2576,3.2558,3.2517,3.2509,3.2518,3.2534,3.2551,3.2544,3.2376,3.2505,3.2504,3.2503,3.2502,3.2501,3.2806,3.282,3.2796,3.2796,3.2781,3.2771,3.2779,3.2751,3.2751,3.2741,3.2711,3.2718,3.2695,3.2674,3.2661,3.2665,3.2639,3.2652,3.2656,3.266,3.2669,3.255,3.2663,3.2662,3.2662,3.2661,3.2661,0,3.2928,3.291,3.291,3.2895,3.2895,3.2856,3.2841,3.2844,3.285,3.2833,3.2829,3.2831,3.283,3.2796,3.279,3.2801,3.2782,3.2801,3.28,3.2797,3.2692,3.2685,3.2817,3.2817,3.2817,3.2817,3.2817,3.2817,3.2991,3.3013,3.299,3.3005,3.2987,3.2993,3.2988,3.2979,3.2965,3.297,3.2969,3.2947,3.2924,3.2917,3.2915,3.2905,3.2906,3.2933,3.2917,3.2819,3.2804,3.279,3.2783,3.2933,3.2933,3.3021,3.3022,3.3023]}]]